TimeEST,TemperatureF,Dew PointF,Humidity,Sea Level PressureIn,VisibilityMPH,Wind Direction,Wind SpeedMPH,Gust SpeedMPH,PrecipitationIn,Events,Conditions,WindDirDegrees,DateUTC
12:52 AM,39.9,26.1,58,29.87,10.0,WNW,10.4,-,N/A,,Clear,290,2012-12-19 05:52:00
1:52 AM,41.0,27.0,57,29.90,10.0,West,13.8,-,N/A,,Clear,260,2012-12-19 06:52:00
2:52 AM,41.0,27.0,57,29.91,10.0,West,16.1,21.9,N/A,,Clear,260,2012-12-19 07:52:00
3:52 AM,41.0,28.0,60,29.93,10.0,WSW,10.4,-,N/A,,Overcast,250,2012-12-19 08:52:00
4:52 AM,41.0,28.0,60,29.94,10.0,West,10.4,-,N/A,,Clear,260,2012-12-19 09:52:00
5:52 AM,42.1,28.9,60,29.96,10.0,WSW,10.4,-,N/A,,Overcast,250,2012-12-19 10:52:00
6:35 AM,42.8,30.2,61,29.97,10.0,West,11.5,-,N/A,,Overcast,260,2012-12-19 11:35:00
6:52 AM,42.1,30.0,62,29.99,10.0,West,11.5,-,N/A,,Overcast,260,2012-12-19 11:52:00
7:52 AM,43.0,32.0,65,30.01,10.0,West,13.8,-,N/A,,Mostly Cloudy,270,2012-12-19 12:52:00
8:17 AM,42.8,32.0,66,29.99,10.0,West,11.5,-,N/A,,Scattered Clouds,270,2012-12-19 13:17:00
8:52 AM,44.1,33.1,65,30.01,10.0,West,13.8,20.7,N/A,,Clear,270,2012-12-19 13:52:00
9:52 AM,46.0,34.0,63,30.02,10.0,West,16.1,25.3,N/A,,Clear,270,2012-12-19 14:52:00
10:52 AM,46.9,33.1,59,30.04,10.0,WNW,17.3,26.5,N/A,,Clear,290,2012-12-19 15:52:00
11:52 AM,50.0,33.1,52,30.02,10.0,West,12.7,20.7,N/A,,Clear,280,2012-12-19 16:52:00
12:52 PM,52.0,28.9,41,30.00,10.0,WNW,15.0,23.0,N/A,,Clear,290,2012-12-19 17:52:00
1:52 PM,53.1,28.0,38,30.00,10.0,NW,11.5,-,N/A,,Clear,310,2012-12-19 18:52:00
2:52 PM,54.0,28.0,37,30.01,10.0,West,10.4,-,N/A,,Clear,270,2012-12-19 19:52:00
3:52 PM,54.0,28.0,37,30.02,10.0,WNW,5.8,-,N/A,,Clear,300,2012-12-19 20:52:00
4:52 PM,51.1,28.9,43,30.04,10.0,WNW,4.6,-,N/A,,Clear,300,2012-12-19 21:52:00
5:52 PM,46.9,32.0,56,30.07,10.0,WSW,4.6,-,N/A,,Clear,250,2012-12-19 22:52:00
6:52 PM,46.9,33.1,59,30.08,10.0,WSW,3.5,-,N/A,,Clear,240,2012-12-19 23:52:00
7:52 PM,46.0,33.1,61,30.09,10.0,SSE,3.5,-,N/A,,Clear,150,2012-12-20 00:52:00
8:52 PM,46.0,32.0,58,30.09,10.0,Calm,Calm,-,N/A,,Clear,0,2012-12-20 01:52:00
9:52 PM,43.0,33.1,68,30.09,10.0,ESE,3.5,-,N/A,,Clear,110,2012-12-20 02:52:00
10:52 PM,43.0,32.0,65,30.10,10.0,Calm,Calm,-,N/A,,Clear,0,2012-12-20 03:52:00
11:52 PM,44.1,30.0,58,30.07,10.0,East,3.5,-,N/A,,Clear,90,2012-12-20 04:52:00